QPF
0.01 0.00 0.00 0.00 0.00 0.00 0.01 0.01 0.01 0.02 0.02 0.02 0.02 0.02 0.02 0.02 0.04 0.03 0.04 0.06 0.06 0.06 0.06 0.05 0.05 0.04 0.04 0.04 0.04 0.03 0.03 0.03 0.02 0.02 0.02 0.03 0.03 0.03
0.00 0.00 0.00 0.00 0.00 0.00 0.01 0.01 0.01 0.01 0.01 0.01 0.01 0.01 0.01 0.01 0.01 0.01 0.01 0.02 0.02 0.02 0.02 0.02 0.02 0.02 0.02 0.02 0.02 0.02 0.02 0.03 0.03 0.02 0.02 0.03 0.03 0.03
0.00 0.00 0.00 0.00 0.00 0.00 0.00 0.00 0.00 0.00 0.00 0.00 0.00 0.00 0.00 0.00 0.00 0.00 0.00 0.00 0.00 0.00 0.01 0.01 0.01 0.01 0.01 0.01 0.02 0.02 0.02 0.02 0.02 0.02 0.02 0.02 0.02 0.02
0.00 0.00 0.00 0.00 0.00 0.00 0.00 0.00 0.00 0.00 0.00 0.00 0.00 0.00 0.00 0.00 0.00 0.00 0.00 0.00 0.00 0.00 0.00 0.00 0.01 0.01 0.01 0.01 0.01 0.01 0.01 0.01 0.01 0.01 0.01 0.01 0.01 0.02
0.00 0.00 0.00 0.00 0.00 0.00 0.00 0.00 0.00 0.00 0.00 0.00 0.00 0.00 0.00 0.00 0.00 0.00 0.00 0.00 0.00 0.00 0.00 0.00 0.00 0.01 0.01 0.00 0.01 0.00 0.00 0.00 0.00 0.00 0.00 0.00 0.01 0.01
0.00 0.00 0.00 0.00 0.00 0.00 0.00 0.00 0.00 0.00 0.00 0.00 0.00 0.00 0.00 0.00 0.00 0.00 0.00 0.00 0.00 0.00 0.00 0.00 0.00 0.00 0.00 0.00 0.00 0.00 0.00 0.00 0.00 0.00 0.00 0.00 0.00 0.00
0.00 0.00 0.00 0.00 0.00 0.00 0.00 0.00 0.00 0.00 0.00 0.00 0.00 0.00 0.00 0.00 0.00 0.00 0.00 0.00 0.00 0.00 0.00 0.00 0.00 0.00 0.00 0.00 0.00 0.00 0.00 0.00 0.00 0.00 0.00 0.00 0.00 0.00
0.00 0.00 0.00 0.00 0.00 0.00 0.00 0.00 0.00 0.00 0.00 0.00 0.00 0.00 0.00 0.00 0.00 0.00 0.00 0.00 0.01 0.00 0.00 0.00 0.00 0.00 0.00 0.00 0.00 0.00 0.00 0.00 0.00 0.00 0.00 0.00 0.00 0.00
0.00 0.00 0.00 0.00 0.00 0.00 0.00 0.00 0.00 0.00 0.00 0.00 0.00 0.00 0.00 0.00 0.00 0.00 0.00 0.00 0.00 0.00 0.00 0.00 0.00 0.00 0.00 0.00 0.00 0.00 0.00 0.00 0.00 0.00 0.00 0.00 0.00 0.00
0.00 0.00 0.00 0.00 0.00 0.00 0.00 0.00 0.00 0.00 0.00 0.00 0.00 0.00 0.00 0.00 0.00 0.00 0.00 0.00 0.00 0.01 0.00 0.00 0.00 0.00 0.00 0.00 0.00 0.00 0.00 0.00 0.00 0.00 0.00 0.00 0.00 0.00
0.00 0.00 0.00 0.00 0.00 0.00 0.00 0.00 0.00 0.00 0.00 0.00 0.00 0.00 0.00 0.00 0.00 0.00 0.00 0.00 0.01 0.01 0.00 0.00 0.00 0.00 0.00 0.00 0.00 0.00 0.00 0.00 0.00 0.00 0.00 0.00 0.00 0.00
0.00 0.00 0.00 0.00 0.00 0.00 0.00 0.00 0.00 0.00 0.00 0.00 0.00 0.00 0.00 0.00 0.00 0.00 0.00 0.00 0.00 0.00 0.00 0.00 0.00 0.00 0.00 0.00 0.00 0.00 0.00 0.00 0.00 0.00 0.00 0.00 0.00 0.00
0.00 0.00 0.00 0.00 0.00 0.00 0.00 0.00 0.00 0.00 0.00 0.00 0.00 0.00 0.00 0.00 0.00 0.00 0.00 0.00 0.00 0.00 0.00 0.00 0.00 0.00 0.00 0.00 0.00 0.00 0.00 0.00 0.00 0.00 0.00 0.00 0.01 0.01
0.00 0.00 0.00 0.00 0.00 0.00 0.00 0.00 0.00 0.00 0.00 0.00 0.00 0.00 0.00 0.00 0.00 0.00 0.00 0.00 0.00 0.00 0.00 0.00 0.00 0.00 0.00 0.00 0.00 0.00 0.00 0.00 0.00 0.00 0.00 0.01 0.01 0.01
0.00 0.00 0.00 0.00 0.00 0.00 0.00 0.00 0.00 0.00 0.00 0.00 0.00 0.00 0.00 0.00 0.00 0.00 0.00 0.00 0.00 0.00 0.00 0.00 0.00 0.00 0.00 0.00 0.00 0.00 0.00 0.00 0.00 0.00 0.00 0.01 0.01 0.01
0.00 0.00 0.00 0.00 0.00 0.00 0.00 0.00 0.00 0.00 0.00 0.00 0.00 0.00 0.00 0.00 0.00 0.00 0.00 0.00 0.00 0.00 0.00 0.00 0.00 0.00 0.00 0.00 0.00 0.00 0.00 0.00 0.00 0.00 0.00 0.00 0.01 0.00
0.00 0.00 0.00 0.00 0.00 0.00 0.00 0.00 0.00 0.00 0.00 0.00 0.00 0.00 0.00 0.00 0.00 0.00 0.00 0.00 0.00 0.00 0.00 0.00 0.00 0.00 0.00 0.00 0.00 0.00 0.00 0.00 0.00 0.00 0.00 0.00 0.00 0.00
0.00 0.00 0.00 0.00 0.00 0.00 0.00 0.00 0.00 0.00 0.00 0.00 0.00 0.00 0.00 0.00 0.00 0.00 0.00 0.00 0.00 0.00 0.00 0.00 0.00 0.00 0.00 0.00 0.00 0.00 0.00 0.00 0.00 0.00 0.00 0.00 0.00 0.00
0.00 0.00 0.00 0.00 0.00 0.00 0.00 0.00 0.00 0.00 0.00 0.00 0.00 0.00 0.00 0.00 0.00 0.00 0.00 0.00 0.00 0.00 0.00 0.00 0.00 0.00 0.00 0.00 0.00 0.00 0.00 0.00 0.00 0.00 0.00 0.00 0.00 0.00
0.00 0.00 0.00 0.00 0.00 0.00 0.00 0.00 0.00 0.00 0.00 0.00 0.00 0.00 0.00 0.00 0.00 0.00 0.00 0.00 0.00 0.00 0.00 0.00 0.00 0.00 0.00 0.00 0.00 0.00 0.00 0.00 0.00 0.00 0.00 0.00 0.00 0.00
0.00 0.00 0.00 0.00 0.00 0.00 0.00 0.00 0.00 0.00 0.00 0.00 0.00 0.00 0.00 0.00 0.00 0.00 0.00 0.00 0.00 0.00 0.00 0.00 0.00 0.00 0.00 0.00 0.00 0.00 0.00 0.00 0.00 0.00 0.00 0.00 0.00 0.00
0.00 0.00 0.00 0.00 0.00 0.00 0.00 0.00 0.00 0.00 0.00 0.00 0.00 0.00 0.00 0.00 0.00 0.00 0.00 0.00 0.00 0.00 0.00 0.00 0.00 0.00 0.00 0.00 0.00 0.00 0.00 0.00 0.00 0.00 0.00 0.00 0.00 0.00
0.00 0.00 0.00 0.00 0.00 0.00 0.00 0.00 0.00 0.00 0.00 0.00 0.00 0.00 0.00 0.00 0.00 0.00 0.00 0.00 0.00 0.00 0.00 0.00 0.00 0.00 0.00 0.00 0.00 0.00 0.00 0.00 0.00 0.00 0.00 0.00 0.00 0.00
MSLP
1025.41 1025.43 1025.45 1025.49 1025.54 1025.59 1025.61 1025.59 1025.51 1025.35 1025.12 1024.81 1024.45 1024.03 1023.58 1023.13 1022.68 1022.25 1021.85 1021.48 1021.14 1020.83 1020.54 1020.28 1020.04 1019.81 1019.59 1019.38 1019.18 1018.99 1018.82 1018.66 1018.52 1018.39 1018.28 1018.18 1018.10 1018.03
1025.90 1025.91 1025.93 1025.96 1025.99 1026.03 1026.05 1026.02 1025.94 1025.78 1025.54 1025.22 1024.83 1024.38 1023.88 1023.37 1022.84 1022.33 1021.84 1021.38 1020.96 1020.57 1020.22 1019.90 1019.62 1019.36 1019.13 1018.91 1018.71 1018.52 1018.35 1018.19 1018.04 1017.91 1017.79 1017.69 1017.60 1017.53
1026.26 1026.26 1026.26 1026.28 1026.31 1026.34 1026.36 1026.35 1026.27 1026.12 1025.89 1025.58 1025.18 1024.71 1024.19 1023.62 1023.05 1022.47 1021.91 1021.38 1020.89 1020.43 1020.03 1019.67 1019.35 1019.07 1018.82 1018.59 1018.39 1018.21 1018.04 1017.87 1017.71 1017.57 1017.43 1017.31 1017.21 1017.13
1026.51 1026.48 1026.47 1026.47 1026.50 1026.53 1026.55 1026.54 1026.48 1026.35 1026.14 1025.84 1025.45 1024.99 1024.46 1023.89 1023.29 1022.68 1022.08 1021.50 1020.96 1020.46 1020.02 1019.62 1019.28 1018.98 1018.72 1018.49 1018.29 1018.10 1017.93 1017.76 1017.59 1017.43 1017.27 1017.13 1016.99 1016.88
1026.66 1026.60 1026.56 1026.55 1026.55 1026.58 1026.59 1026.59 1026.54 1026.42 1026.23 1025.96 1025.60 1025.16 1024.66 1024.10 1023.51 1022.91 1022.31 1021.72 1021.16 1020.65 1020.18 1019.77 1019.41 1019.09 1018.82 1018.59 1018.39 1018.20 1018.02 1017.84 1017.67 1017.49 1017.31 1017.13 1016.96 1016.80
1026.75 1026.65 1026.57 1026.52 1026.50 1026.50 1026.51 1026.49 1026.44 1026.33 1026.15 1025.90 1025.58 1025.18 1024.72 1024.21 1023.67 1023.10 1022.54 1021.98 1021.44 1020.93 1020.47 1020.05 1019.68 1019.35 1019.07 1018.83 1018.62 1018.42 1018.24 1018.06 1017.87 1017.68 1017.48 1017.27 1017.07 1016.87
1026.78 1026.63 1026.51 1026.42 1026.37 1026.34 1026.31 1026.26 1026.19 1026.07 1025.90 1025.67 1025.37 1025.02 1024.62 1024.18 1023.71 1023.21 1022.71 1022.21 1021.71 1021.24 1020.79 1020.38 1020.00 1019.67 1019.38 1019.12 1018.90 1018.70 1018.51 1018.32 1018.13 1017.93 1017.72 1017.49 1017.26 1017.02
1026.77 1026.57 1026.41 1026.29 1026.19 1026.11 1026.04 1025.95 1025.84 1025.70 1025.51 1025.29 1025.02 1024.71 1024.37 1024.00 1023.61 1023.20 1022.78 1022.36 1021.92 1021.50 1021.08 1020.68 1020.31 1019.97 1019.66 1019.39 1019.15 1018.93 1018.73 1018.54 1018.35 1018.15 1017.94 1017.71 1017.46 1017.19
1026.73 1026.50 1026.31 1026.14 1026.01 1025.88 1025.76 1025.62 1025.46 1025.28 1025.07 1024.83 1024.57 1024.30 1024.01 1023.71 1023.40 1023.08 1022.75 1022.40 1022.04 1021.67 1021.29 1020.91 1020.55 1020.20 1019.88 1019.59 1019.32 1019.09 1018.88 1018.68 1018.49 1018.30 1018.09 1017.86 1017.61 1017.34
1026.68 1026.44 1026.22 1026.04 1025.87 1025.70 1025.53 1025.34 1025.13 1024.90 1024.65 1024.39 1024.13 1023.87 1023.62 1023.37 1023.13 1022.89 1022.63 1022.36 1022.06 1021.74 1021.41 1021.05 1020.70 1020.35 1020.01 1019.70 1019.42 1019.17 1018.95 1018.74 1018.55 1018.36 1018.16 1017.94 1017.70 1017.42
1026.65 1026.41 1026.19 1025.99 1025.81 1025.61 1025.40 1025.17 1024.91 1024.63 1024.34 1024.05 1023.77 1023.51 1023.27 1023.06 1022.86 1022.67 1022.47 1022.26 1022.02 1021.75 1021.45 1021.12 1020.78 1020.43 1020.09 1019.77 1019.47 1019.20 1018.97 1018.75 1018.56 1018.37 1018.18 1017.97 1017.73 1017.46
1026.65 1026.42 1026.22 1026.03 1025.84 1025.63 1025.40 1025.13 1024.83 1024.51 1024.18 1023.86 1023.55 1023.27 1023.03 1022.82 1022.64 1022.47 1022.31 1022.14 1021.94 1021.71 1021.44 1021.15 1020.83 1020.49 1020.16 1019.83 1019.52 1019.24 1018.99 1018.77 1018.56 1018.37 1018.18 1017.97 1017.74 1017.48
1026.70 1026.50 1026.32 1026.14 1025.96 1025.75 1025.50 1025.22 1024.90 1024.55 1024.18 1023.83 1023.49 1023.18 1022.92 1022.69 1022.50 1022.34 1022.18 1022.02 1021.85 1021.65 1021.42 1021.15 1020.86 1020.55 1020.23 1019.91 1019.61 1019.32 1019.06 1018.82 1018.60 1018.39 1018.19 1017.99 1017.76 1017.50
1026.79 1026.62 1026.46 1026.31 1026.14 1025.94 1025.70 1025.41 1025.07 1024.71 1024.33 1023.94 1023.57 1023.23 1022.93 1022.67 1022.45 1022.26 1022.09 1021.93 1021.76 1021.58 1021.38 1021.14 1020.89 1020.61 1020.32 1020.02 1019.73 1019.44 1019.16 1018.91 1018.67 1018.45 1018.23 1018.01 1017.78 1017.53
1026.91 1026.77 1026.64 1026.50 1026.35 1026.16 1025.93 1025.65 1025.32 1024.95 1024.56 1024.16 1023.76 1023.39 1023.04 1022.74 1022.47 1022.24 1022.03 1021.85 1021.67 1021.50 1021.32 1021.12 1020.90 1020.66 1020.41 1020.14 1019.85 1019.57 1019.29 1019.01 1018.75 1018.50 1018.27 1018.03 1017.80 1017.54
1027.05 1026.93 1026.82 1026.70 1026.56 1026.39 1026.17 1025.90 1025.59 1025.23 1024.84 1024.43 1024.01 1023.61 1023.22 1022.86 1022.54 1022.25 1021.99 1021.77 1021.58 1021.40 1021.23 1021.05 1020.87 1020.67 1020.45 1020.21 1019.95 1019.67 1019.38 1019.09 1018.80 1018.52 1018.26 1018.01 1017.77 1017.52
1027.19 1027.09 1026.99 1026.88 1026.75 1026.59 1026.39 1026.14 1025.85 1025.51 1025.13 1024.72 1024.29 1023.86 1023.43 1023.02 1022.63 1022.28 1021.97 1021.70 1021.47 1021.27 1021.10 1020.94 1020.79 1020.62 1020.43 1020.21 1019.96 1019.68 1019.38 1019.07 1018.76 1018.45 1018.17 1017.90 1017.65 1017.41
1027.33 1027.24 1027.15 1027.05 1026.93 1026.78 1026.59 1026.36 1026.09 1025.78 1025.42 1025.01 1024.58 1024.13 1023.66 1023.20 1022.75 1022.34 1021.96 1021.64 1021.37 1021.14 1020.95 1020.79 1020.64 1020.49 1020.32 1020.11 1019.87 1019.59 1019.28 1018.94 1018.60 1018.27 1017.96 1017.68 1017.43 1017.21
1027.47 1027.39 1027.30 1027.21 1027.09 1026.95 1026.78 1026.58 1026.33 1026.04 1025.70 1025.31 1024.88 1024.40 1023.91 1023.40 1022.90 1022.43 1021.99 1021.60 1021.28 1021.01 1020.79 1020.62 1020.46 1020.31 1020.14 1019.94 1019.69 1019.39 1019.06 1018.71 1018.34 1017.98 1017.65 1017.36 1017.12 1016.91
1027.61 1027.55 1027.47 1027.38 1027.27 1027.14 1026.99 1026.80 1026.58 1026.31 1025.98 1025.61 1025.18 1024.69 1024.17 1023.63 1023.08 1022.55 1022.05 1021.61 1021.23 1020.91 1020.66 1020.46 1020.28 1020.11 1019.93 1019.71 1019.45 1019.14 1018.79 1018.41 1018.02 1017.64 1017.29 1016.99 1016.75 1016.56
1027.76 1027.72 1027.66 1027.58 1027.48 1027.36 1027.21 1027.04 1026.83 1026.58 1026.27 1025.90 1025.47 1024.98 1024.43 1023.86 1023.27 1022.70 1022.15 1021.66 1021.23 1020.87 1020.58 1020.34 1020.13 1019.94 1019.74 1019.50 1019.22 1018.89 1018.52 1018.12 1017.70 1017.30 1016.94 1016.63 1016.38 1016.20
1027.92 1027.90 1027.85 1027.78 1027.70 1027.58 1027.45 1027.28 1027.08 1026.83 1026.52 1026.16 1025.72 1025.22 1024.67 1024.07 1023.46 1022.85 1022.27 1021.74 1021.27 1020.88 1020.55 1020.28 1020.05 1019.83 1019.61 1019.35 1019.05 1018.71 1018.32 1017.90 1017.47 1017.05 1016.67 1016.35 1016.09 1015.91
1028.07 1028.08 1028.05 1027.99 1027.91 1027.80 1027.66 1027.49 1027.28 1027.03 1026.72 1026.34 1025.90 1025.39 1024.83 1024.22 1023.60 1022.97 1022.38 1021.83 1021.34 1020.93 1020.58 1020.29 1020.03 1019.80 1019.56 1019.29 1018.98 1018.62 1018.23 1017.80 1017.36 1016.94 1016.54 1016.21 1015.93 1015.73
Thickness
5594 5591 5588 5584 5582 5580 5578 5575 5572 5567 5562 5557 5555 5553 5550 5548 5546 5543 5540 5538 5535 5532 5529 5526 5523 5520 5517 5514 5511 5508 5506 5503 5501 5499 5498 5496 5495 5493
5580 5577 5574 5570 5567 5565 5562 5559 5556 5553 5547 5542 5539 5537 5535 5533 5531 5528 5525 5523 5520 5517 5514 5511 5509 5506 5502 5499 5497 5494 5491 5489 5487 5486 5484 5482 5481 5479
5566 5563 5560 5556 5553 5550 5547 5543 5539 5536 5532 5528 5524 5522 5520 5518 5517 5514 5512 5509 5506 5503 5500 5497 5494 5491 5488 5485 5483 5481 5479 5477 5475 5473 5471 5469 5467 5466
5552 5549 5546 5543 5539 5536 5532 5529 5525 5520 5517 5514 5510 5508 5506 5504 5501 5499 5497 5495 5492 5490 5487 5484 5482 5479 5477 5475 5473 5471 5469 5467 5464 5462 5460 5458 5455 5453
5539 5536 5532 5530 5526 5523 5520 5516 5512 5508 5503 5501 5498 5494 5493 5491 5488 5487 5485 5483 5481 5479 5477 5474 5472 5470 5468 5466 5464 5463 5461 5459 5456 5452 5449 5447 5444 5442
5527 5524 5521 5518 5515 5512 5509 5505 5501 5498 5494 5490 5488 5485 5482 5480 5477 5476 5476 5474 5472 5471 5469 5467 5465 5463 5461 5460 5458 5455 5452 5449 5446 5443 5440 5438 5435 5433
5516 5513 5511 5508 5505 5502 5499 5495 5492 5489 5485 5483 5480 5477 5476 5474 5471 5468 5466 5465 5465 5462 5461 5461 5459 5457 5456 5454 5451 5448 5445 5442 5439 5436 5434 5431 5429 5427
5505 5502 5501 5498 5496 5493 5490 5488 5485 5481 5479 5476 5474 5471 5470 5468 5465 5462 5459 5458 5459 5457 5453 5455 5454 5452 5450 5448 5445 5442 5440 5437 5435 5432 5429 5427 5424 5422
5495 5493 5492 5490 5487 5485 5483 5481 5479 5476 5474 5471 5469 5467 5465 5464 5460 5458 5456 5453 5453 5452 5449 5451 5450 5448 5446 5443 5441 5438 5436 5433 5431 5428 5426 5423 5421 5418
5487 5485 5483 5481 5479 5477 5476 5475 5474 5473 5470 5468 5466 5464 5462 5460 5456 5454 5452 5449 5449 5448 5445 5446 5447 5445 5443 5441 5438 5435 5433 5430 5428 5425 5423 5420 5418 5415
5480 5478 5477 5475 5474 5472 5471 5470 5470 5470 5468 5465 5464 5462 5461 5459 5456 5453 5451 5450 5450 5449 5444 5442 5443 5441 5440 5439 5436 5433 5430 5428 5425 5423 5420 5417 5415 5413
5474 5474 5472 5470 5469 5468 5466 5465 5465 5465 5463 5463 5462 5462 5460 5458 5456 5452 5450 5448 5447 5447 5444 5440 5440 5438 5439 5438 5434 5432 5429 5427 5424 5421 5418 5416 5413 5411
5469 5468 5467 5466 5466 5465 5464 5461 5460 5459 5458 5457 5458 5458 5458 5457 5455 5452 5449 5447 5446 5445 5443 5439 5438 5436 5433 5433 5433 5431 5428 5425 5423 5420 5417 5414 5411 5407
5463 5462 5462 5463 5463 5462 5460 5459 5458 5457 5456 5455 5455 5455 5454 5454 5453 5452 5450 5448 5445 5444 5442 5438 5437 5435 5433 5432 5432 5431 5428 5425 5421 5419 5416 5413 5409 5406
5458 5458 5458 5459 5459 5458 5456 5455 5455 5453 5452 5452 5451 5451 5450 5450 5451 5451 5451 5449 5448 5446 5443 5440 5437 5435 5432 5431 5430 5428 5426 5425 5421 5418 5415 5412 5408 5405
5455 5455 5455 5455 5454 5453 5452 5451 5449 5448 5447 5446 5446 5448 5449 5450 5450 5449 5449 5447 5447 5447 5444 5441 5439 5436 5435 5433 5429 5428 5425 5422 5421 5418 5415 5412 5408 5405
5452 5452 5451 5449 5448 5447 5446 5446 5445 5445 5444 5444 5444 5445 5447 5448 5448 5447 5446 5446 5446 5445 5445 5443 5441 5438 5436 5433 5433 5431 5427 5424 5421 5418 5416 5414 5411 5407
5448 5446 5444 5442 5441 5440 5440 5440 5441 5440 5439 5440 5441 5442 5443 5444 5445 5445 5445 5445 5445 5445 5444 5443 5442 5442 5441 5438 5432 5431 5430 5427 5424 5421 5418 5417 5415 5411
5444 5442 5440 5438 5437 5436 5435 5435 5435 5435 5435 5436 5438 5439 5440 5442 5443 5444 5444 5445 5445 5445 5445 5443 5442 5442 5444 5443 5441 5433 5431 5431 5428 5426 5423 5420 5418 5416
5439 5438 5436 5435 5433 5432 5432 5432 5432 5433 5434 5434 5435 5436 5437 5439 5441 5443 5443 5443 5444 5445 5446 5446 5444 5442 5442 5441 5440 5438 5435 5432 5432 5431 5428 5425 5423 5420
5436 5434 5433 5431 5430 5429 5429 5428 5429 5429 5430 5431 5432 5433 5435 5437 5440 5441 5443 5443 5444 5445 5447 5447 5445 5442 5441 5441 5442 5444 5442 5438 5435 5433 5432 5431 5431 5430
5434 5432 5430 5429 5428 5427 5426 5426 5427 5428 5428 5429 5430 5431 5433 5435 5438 5440 5443 5444 5445 5446 5446 5447 5447 5447 5447 5447 5447 5447 5446 5445 5442 5439 5436 5434 5434 5436
5432 5430 5429 5427 5426 5425 5425 5425 5425 5426 5426 5427 5428 5430 5432 5435 5438 5441 5443 5445 5447 5448 5449 5450 5451 5451 5450 5449 5449 5449 5449 5449 5448 5447 5446 5442 5439 5437